Regional Weather Roundup
Issued by NWS Newport/Morehead, NC

Current Version | Previous Version | Graphics & Text | Print | Product List | Glossary Off
Versions: 1 2 3 4 5 6 7 8 9 10 11 12 13 14 15 16 17 18 19 20 21 22 23 24 25 26 27 28 29 30 31 32 33 34 35 36 37 38 39 40 41 42 43 44 45 46 47 48 49 50

000
ASUS42 KMHX 302310
RWRMHX
WEATHER ROUNDUP FOR EASTERN NORTH CAROLINA
NATIONAL WEATHER SERVICE NEWPORT/MOREHEAD CITY NC
700 PM EDT WED JUL 30 2014

NOTE: "FAIR" INDICATES FEW OR NO CLOUDS BELOW 12,000 FEET
WITH NO SIGNIFICANT WEATHER AND/OR OBSTRUCTIONS TO VISIBILITY

NCZ015>017-031-032-045>047-102-103-310000-
NORTH COAST

CITY           SKY/WX    TMP DP  RH WIND       PRES   REMARKS
EDENTON        SUNNY     78  63  59 E5        30.05R
ELIZABETH CITY SUNNY     76  61  59 E10       30.05S
KITTY HAWK     CLEAR     76  60  59 E6        30.05S
MANTEO         NOT AVBL

$$

NCZ045>047-081-094-103-104-310000-
CENTRAL COAST

CITY           SKY/WX    TMP DP  RH WIND       PRES   REMARKS
FRISCO         SUNNY     78  62  57 NE6       30.05S
SWANQUARTER      N/A     79 N/A N/A E5G10     30.00S

$$

NCZ095-097-098-100-101-310000-
SOUTHERN COAST

CITY           SKY/WX    TMP DP  RH WIND       PRES   REMARKS
BEAUFORT       SUNNY     79  66  64 E8        30.04R
CEDAR ISLAND     N/A     79 N/A N/A E12G17    30.09S
JACKSONVILLE   SUNNY     80  65  59 E13       30.02R
NEWPORT        NOT AVBL
PINEY ISLAND   CLEAR     80  67  64 E9        30.04R
WILMINGTON     MOSUNNY   80  64  58 E8        30.02R


$$

NCZ011>013-027>030-043-044-078>080-089-090>093-098-310000-
COASTAL PLAIN

CITY           SKY/WX    TMP DP  RH WIND       PRES   REMARKS
AHOSKIE        SUNNY     75  63  66 CALM      30.05R
CLINTON        SUNNY     83  65  54 CALM      30.02R
ELIZABETHTOWN  MOSUNNY   82  64  53 E3        30.01S
GOLDSBORO      SUNNY     81  67  62 E6        30.01R
GREENVILLE     SUNNY     81  63  54 E6        30.05S
HAVELOCK       MOSUNNY   80  61  52 E7        30.04R
KENANSVILLE    SUNNY     80  63  54 CALM      30.03R
KINSTON        MOSUNNY   82  61  47 E6        30.04R
NEW BERN       SUNNY     81  63  54 E7        30.05R
RICHLANDS      SUNNY     82  61  47 SE5       30.02S
ROANOKE RAPIDS NOT AVBL
ROCKY MOUNT    SUNNY     81  63  54 CALM      30.04R
WASHINGTON     MOSUNNY   79  65  61 E5        30.04R
WHITEVILLE     PTSUNNY   83  65  55 SE5       30.01R

$$

AMZ130-135-150-152-154-156-158-170-250-252-270-ANZ085-086-088-633-658-670-310000-
MARINE OBSERVATIONS

STATION/POSITION TIME  TEMP    WIND        PRES    WAVE   SWELL
                       AIR SEA DIR/SP/G            HT/PER HT/PER
                 (UTC) (F)     (DEG/KT/KT) (MB)    (FT/S) (FT/S)
CHESAPEAKE LIGHT NOT AVBL
BUOY 44014       2300   75 78   20/  6/  8 1017.8    2/ 7   2/ 7
DUCK             2300   76 77   90/  9/ 11 1017.2
2E DUCK          2200                        N/A     2/ 7
OREGON INLET     2300   76 78   60/  6/ 11 1017.8
BUOY 44095       2300      78                N/A     3/ 7
20E OREGON INLET NOT AVBL
HATTERAS CG      2300   78 80   50/  7/ 11 1018.0
DIAMOND BUOY     2300          VRB 14/ 16  1017.1    4/ 7   2/ 7
CAPE LOOKOUT     2200   78      60/ 14/ 16 1016.9
BEAUFORT LAB     2300   79 83   80/  7/ 14 1016.7
30 SE NEW RIVER  2300   79 81   70/ 16/ 17 1016.7    4/ 8   2/ 8
5 SE WRIGHTSVILL 2200   77 82  100/ 16/ 17   N/A
BUOY 41002       2155   82 81  260/  4/  4 1015.4    5/ 6   5/ 6
BUOY 41004       2300   82 84   80/ 14/ 17 1014.6    4/ 5   2/ 8

$$



USA.gov is the U.S. government's official web portal to all federal, state and local government web resources and services.